Location: Hannover
(52.3723°N, 9.7339°E)
Time: 14:39:26
(UTC+01:00)

ISS - Pass Details

Date: 06 January 2018
Orbit: 402 x 407 km, 51.6° (Epoch: 18 January)

Event Time Altitude Azimuth Distance (km) Brightness Sun altitude
Exits shadow 06:46:20 31° 267° (W) 744 -3.0 -14.8°
Maximum altitude 06:47:46 78° 186° (S) 421 -3.8 -14.6°
Drops below altitude 10° 06:51:04 10° 99° (E) 1,470 0.4 -14.1°
Sets 06:53:09 0° 98° (E) 2,331 1.8 -13.8°
